Date String (YYYY-MM-DD hh:mm:ss) UTC,Instrument flags,Ambient pressure (hPa),Sample flow (lpm),Bypass flow (lpm),Sample temperature (°C),Ambient temperature (°C),ASC tube jacket temperature (°C),LED temperature (°C),Box temperature (°C),Sample RH (%),Span deviation,Mass concentration (μg/m³),Mass concentration (μg/m³),Mass concentration (μg/m³)
DateTimeUTC,F1_M11,P_M11,Q1_M11,Q2_M11,T1_M11,T2_M11,T3_M11,T4_M11,T5_M11,U1_M11,ZSPAN_M11,X0_M11,X2_M11,X1_M11
2023-01-06 01:00:00,,0823.1,5.00,0.00,22.4,21.1,00.0,31.2,24.2,10.4,-000.4,0017.30,0010.34,0009.66
2023-01-06 01:01:00,,0823.1,5.00,0.00,22.4,21.1,00.0,31.2,24.2,10.4,-000.3,0017.58,0010.31,0009.61
2023-01-06 01:02:00,,0823.0,5.00,0.00,22.4,21.0,00.0,31.2,24.2,10.2,-000.1,0017.05,0010.32,0009.64
2023-01-06 01:03:00,,0822.9,5.00,0.00,22.3,20.9,00.0,31.2,24.1,10.3,0001.0,0016.84,0010.43,0009.72
2023-01-06 01:04:00,,0822.8,4.99,0.00,22.3,20.9,00.0,31.2,24.1,10.3,0001.3,0016.06,0010.50,0009.75
2023-01-06 01:05:00,,0822.8,5.00,0.00,22.3,20.8,00.0,31.2,24.1,10.3,0001.4,0015.94,0010.53,0009.77
2023-01-06 01:06:00,,0822.8,5.00,0.00,22.3,20.8,00.0,31.2,24.1,10.3,0001.9,0015.96,0010.63,0009.83
2023-01-06 01:07:00,,0822.8,5.01,0.00,22.3,20.8,00.0,31.2,24.0,10.3,0001.9,0015.89,0010.71,0009.87
2023-01-06 01:08:00,,0822.8,5.01,0.00,22.3,20.8,00.0,31.2,24.0,10.2,0002.3,0015.89,0010.73,0009.88
2023-01-06 01:09:00,,0822.8,5.02,0.00,22.3,20.8,00.0,31.1,24.0,10.2,0002.2,0015.57,0010.75,0009.89
2023-01-06 01:10:00,,0822.8,5.00,0.00,22.3,20.8,00.0,31.1,24.0,10.2,0002.1,0015.48,0010.73,0009.87
2023-01-06 01:11:00,,0822.8,5.00,0.00,22.2,20.8,00.0,31.1,24.0,10.3,0001.9,0015.25,0010.73,0009.88
2023-01-06 01:12:00,,0822.8,5.00,0.00,22.2,20.7,00.0,31.1,23.9,10.2,0001.6,0015.06,0010.74,0009.89
2023-01-06 01:13:00,,0822.8,5.00,0.00,22.2,20.7,00.0,31.1,23.9,10.2,0001.1,0015.32,0010.80,0009.90
2023-01-06 01:14:00,,0822.8,5.01,0.00,22.2,21.2,00.0,31.0,24.1,10.4,0001.3,0015.46,0010.83,0009.88
2023-01-06 01:15:00,,0822.8,5.01,0.00,22.3,22.0,00.0,31.0,24.3,10.3,0001.6,0015.42,0010.77,0009.86
2023-01-06 01:16:00,,0823.0,5.00,0.00,22.5,22.8,00.0,31.1,24.5,10.2,0001.6,0015.72,0010.80,0009.84
2023-01-06 01:17:00,,0823.0,5.00,0.00,22.6,22.9,00.0,31.1,24.6,10.1,0001.9,0015.82,0010.79,0009.83
2023-01-06 01:18:00,,0823.0,4.98,0.00,22.6,22.4,00.0,31.2,24.5,10.1,0002.3,0016.16,0010.82,0009.85
2023-01-06 01:19:00,,0823.0,5.01,0.00,22.6,22.0,00.0,31.2,24.4,10.2,0002.6,0016.73,0010.87,0009.89
2023-01-06 01:20:00,,0822.9,5.00,0.00,22.6,21.7,00.0,31.2,24.4,10.2,0002.9,0016.82,0010.90,0009.91
2023-01-06 01:21:00,,0822.8,5.00,0.00,22.6,21.5,00.0,31.3,24.4,10.1,0003.1,0016.80,0010.85,0009.86
2023-01-06 01:22:00,,0822.7,5.00,0.00,22.5,21.4,00.0,31.3,24.3,09.7,0003.5,0016.55,0010.70,0009.70
2023-01-06 01:23:00,,0822.7,4.99,0.00,22.5,21.4,00.0,31.3,24.3,09.5,0003.6,0016.37,0010.59,0009.57
2023-01-06 01:24:00,,0822.8,5.00,0.00,22.5,21.3,00.0,31.3,24.3,09.2,0003.9,0016.65,0010.39,0009.42
2023-01-06 01:25:00,,0822.7,5.01,0.00,22.5,21.2,00.0,31.3,24.2,09.2,0003.5,0016.27,0010.18,0009.30
2023-01-06 01:26:00,,0822.6,5.00,0.00,22.5,21.1,00.0,31.3,24.1,09.2,0003.2,0015.92,0010.03,0009.19
2023-01-06 01:27:00,,0822.5,4.99,0.00,22.4,20.7,00.0,31.3,24.0,09.0,0003.0,0015.13,0009.74,0009.01
2023-01-06 01:28:00,,0822.4,5.02,0.00,22.3,20.5,00.0,31.3,23.9,08.9,0002.6,0014.50,0009.45,0008.79
2023-01-06 01:29:00,,0822.5,4.99,0.00,22.3,20.3,00.0,31.3,23.7,08.9,0001.7,0013.93,0009.18,0008.58
2023-01-06 01:30:00,,0822.6,4.99,0.00,22.2,20.1,00.0,31.2,23.7,08.9,0001.8,0013.20,0008.91,0008.36
2023-01-06 01:31:00,,0822.4,5.01,0.00,22.1,20.2,00.0,31.2,23.7,09.3,0002.0,0012.96,0008.75,0008.22
2023-01-06 01:32:00,,0822.8,4.99,0.00,22.1,20.3,00.0,31.2,23.8,09.4,0000.7,0012.82,0008.69,0008.18
2023-01-06 01:33:00,,0822.7,5.00,0.00,22.1,20.4,00.0,31.1,23.8,09.5,0000.6,0012.87,0008.75,0008.26
2023-01-06 01:34:00,,0822.8,5.00,0.00,22.1,20.5,00.0,31.1,23.8,09.5,0001.4,0012.86,0008.74,0008.28
2023-01-06 01:35:00,,0822.8,5.00,0.00,22.1,20.6,00.0,31.1,23.8,09.5,0000.8,0012.52,0008.83,0008.35
2023-01-06 01:36:00,,0822.7,4.99,0.00,22.1,20.6,00.0,31.1,23.8,09.4,0000.0,0012.68,0008.93,0008.41
2023-01-06 01:37:00,,0822.8,5.00,0.00,22.1,20.7,00.0,31.1,23.8,09.3,0000.0,0012.84,0009.01,0008.44
2023-01-06 01:38:00,,0822.9,5.01,0.00,22.1,20.9,00.0,31.0,23.9,09.3,0000.0,0012.93,0009.10,0008.54
2023-01-06 01:39:00,,0822.8,4.99,0.00,22.2,21.7,00.0,31.0,24.1,09.2,0000.0,0013.05,0009.23,0008.64
2023-01-06 01:40:00,,0822.9,5.00,0.00,22.3,22.6,00.0,31.0,24.4,09.2,0000.0,0013.32,0009.31,0008.71
2023-01-06 01:41:00,,0822.7,5.01,0.00,22.4,22.7,00.0,31.1,24.5,09.1,0000.0,0013.32,0009.38,0008.77
2023-01-06 01:42:00,,0822.5,4.99,0.00,22.4,22.2,00.0,31.1,24.3,08.9,0000.0,0013.23,0009.31,0008.71
2023-01-06 01:43:00,,0822.7,5.01,0.00,22.4,21.6,00.0,31.1,24.2,08.9,0000.0,0013.16,0009.20,0008.60
2023-01-06 01:44:00,,0822.7,5.00,0.00,22.3,21.0,00.0,31.2,24.0,09.1,0000.0,0013.67,0009.13,0008.54
2023-01-06 01:45:00,,0822.6,4.99,0.00,22.2,20.6,00.0,31.1,23.8,09.3,0000.1,0013.79,0009.14,0008.55
2023-01-06 01:46:00,,0822.6,5.01,0.00,22.2,20.5,00.0,31.1,23.8,09.4,0000.9,0013.63,0009.08,0008.53
2023-01-06 01:47:00,,0822.6,5.00,0.00,22.2,20.4,00.0,31.1,23.7,09.3,0001.8,0013.51,0009.03,0008.49
2023-01-06 01:48:00,,0822.7,5.00,0.00,22.1,20.2,00.0,31.1,23.6,09.6,0002.1,0013.49,0009.04,0008.51
2023-01-06 01:49:00,,0822.8,5.00,0.00,22.0,20.1,00.0,31.1,23.5,09.9,0002.5,0014.06,0009.19,0008.60
2023-01-06 01:50:00,,0822.8,5.00,0.00,22.0,20.0,00.0,31.0,23.5,10.1,0002.8,0014.44,0009.36,0008.75
2023-01-06 01:51:00,,0822.9,5.00,0.00,22.0,20.1,00.0,31.0,23.5,10.4,0002.7,0014.84,0009.63,0008.98
2023-01-06 01:52:00,,0822.9,5.00,0.00,22.0,20.2,00.0,31.0,23.6,10.5,0002.2,0015.59,0009.97,0009.27
2023-01-06 01:53:00,,0822.9,5.00,0.00,22.0,20.3,00.0,31.0,23.7,10.5,0001.7,0016.14,0010.26,0009.54
2023-01-06 01:54:00,,0822.8,5.00,0.00,21.9,20.4,00.0,31.0,23.6,10.5,0002.0,0016.90,0010.49,0009.76
2023-01-06 01:55:00,,0822.9,5.00,0.00,21.9,20.4,00.0,30.9,23.6,10.5,0002.5,0016.49,0010.63,0009.91
2023-01-06 01:56:00,,0823.0,5.00,0.00,21.9,20.4,00.0,30.9,23.6,10.4,0002.2,0016.44,0010.73,0010.00
2023-01-06 01:57:00,,0823.1,5.00,0.00,21.9,20.4,00.0,30.9,23.6,10.3,0001.8,0016.54,0010.81,0010.05
2023-01-06 01:58:00,,0823.2,5.00,0.00,21.9,20.9,00.0,30.9,23.7,10.2,0001.3,0016.60,0010.88,0010.10
2023-01-06 01:59:00,,0823.1,5.00,0.00,22.0,21.9,00.0,30.8,24.0,10.3,0000.6,0017.04,0011.01,0010.20
